IRNSS-1C

Last updated on Sun Jun 21 2026 00:03:06 GMT+0000 (Coordinated Universal Time)

1 40269U 14061A 26170.79126231 -.00000168 00000+0 00000+0 0 9994 2 40269 6.5240 88.8821 0022682 2.7462 184.1889 1.00268918 42714
UTC large
Height (km)
Speed (km/s)
/
Latitude / Longitude
Inclination (degrees)
Orbital Period (minutes)
Azimuth
Elevation
Range (km)
Doppler Factor

Next 0 passes for location: London (51.5072 / 0.1276)

No passes found over London.
IRNSS-1C